Time,TemperatureF,DewpointF,PressureIn,WindDirection,WindDirectionDegrees,WindSpeedMPH,WindSpeedGustMPH,Humidity,HourlyPrecipIn,Conditions,Clouds,dailyrainin,SoftwareType,DateUTC
2013-06-13 04:21:00,74.8,63.5,29.86,NW,315,7.3,-999.0,68,-99.99,,,0.00,Acu-Link.com,2013-06-13 09:21:00,
2013-06-13 04:36:00,74.1,62.8,29.86,WSW,247,4.7,-999.0,68,-99.99,,,0.00,Acu-Link.com,2013-06-13 09:36:00,
2013-06-13 04:52:00,73.8,61.3,29.88,WNW,292,5.8,-999.0,65,-99.99,,,0.00,Acu-Link.com,2013-06-13 09:52:00,
2013-06-13 05:07:00,72.9,59.1,29.88,NNW,337,4.7,-999.0,62,-99.99,,,0.00,Acu-Link.com,2013-06-13 10:07:00,
2013-06-13 05:22:00,71.4,59.0,29.89,NNW,337,1.1,-999.0,65,-99.99,,,0.00,Acu-Link.com,2013-06-13 10:22:00,
2013-06-13 05:38:00,70.5,58.6,29.90,NE,45,0.0,-999.0,66,-99.99,,,0.00,Acu-Link.com,2013-06-13 10:38:00,
2013-06-13 05:53:00,69.4,58.4,29.90,NNW,337,2.2,-999.0,68,-99.99,,,0.00,Acu-Link.com,2013-06-13 10:53:00,
2013-06-13 06:08:00,69.3,56.6,29.91,West,270,7.8,-999.0,64,-99.99,,,0.00,Acu-Link.com,2013-06-13 11:08:00,
2013-06-13 06:24:00,69.4,56.2,29.92,WNW,292,3.7,-999.0,63,-99.99,,,0.00,Acu-Link.com,2013-06-13 11:24:00,
2013-06-13 06:39:00,69.3,56.2,29.93,NNW,337,3.7,-999.0,63,-99.99,,,0.00,Acu-Link.com,2013-06-13 11:39:00,
2013-06-13 06:54:00,69.1,55.5,29.93,NNW,337,3.2,-999.0,62,-99.99,,,0.00,Acu-Link.com,2013-06-13 11:54:00,
2013-06-13 07:09:00,68.2,55.5,29.93,NNW,337,7.3,-999.0,64,-99.99,,,0.00,Acu-Link.com,2013-06-13 12:09:00,
2013-06-13 07:24:00,68.7,56.0,29.94,NNW,337,3.7,-999.0,64,-99.99,,,0.00,Acu-Link.com,2013-06-13 12:24:00,
2013-06-13 07:39:00,69.3,56.6,29.94,NNW,337,1.1,-999.0,64,-99.99,,,0.00,Acu-Link.com,2013-06-13 12:39:00,
2013-06-13 07:55:00,68.7,56.5,29.94,NW,315,2.7,-999.0,65,-99.99,,,0.00,Acu-Link.com,2013-06-13 12:55:00,
2013-06-13 08:10:00,68.9,56.6,29.95,NW,315,4.7,-999.0,65,-99.99,,,0.00,Acu-Link.com,2013-06-13 13:10:00,
2013-06-13 08:25:00,69.3,57.4,29.95,ENE,67,0.0,-999.0,66,-99.99,,,0.00,Acu-Link.com,2013-06-13 13:25:00,
2013-06-13 08:40:00,70.0,57.3,29.95,West,270,3.7,-999.0,64,-99.99,,,0.00,Acu-Link.com,2013-06-13 13:40:00,
2013-06-13 08:56:00,71.4,57.7,29.95,West,270,4.2,-999.0,62,-99.99,,,0.00,Acu-Link.com,2013-06-13 13:56:00,
2013-06-13 09:11:00,72.0,58.7,29.95,NE,45,1.1,-999.0,63,-99.99,,,0.00,Acu-Link.com,2013-06-13 14:11:00,
2013-06-13 09:26:00,72.3,58.5,29.96,NW,315,4.7,-999.0,62,-99.99,,,0.00,Acu-Link.com,2013-06-13 14:26:00,
2013-06-13 09:41:00,72.7,59.4,29.96,NNE,22,1.7,-999.0,63,-99.99,,,0.00,Acu-Link.com,2013-06-13 14:41:00,
2013-06-13 09:56:00,73.4,59.1,29.95,WNW,292,3.7,-999.0,61,-99.99,,,0.00,Acu-Link.com,2013-06-13 14:56:00,
2013-06-13 10:12:00,74.1,59.8,29.95,North,0,0.0,-999.0,61,-99.99,,,0.00,Acu-Link.com,2013-06-13 15:12:00,
2013-06-13 10:27:00,75.4,61.0,29.96,ENE,67,2.7,-999.0,61,-99.99,,,0.00,Acu-Link.com,2013-06-13 15:27:00,
2013-06-13 10:42:00,76.3,60.4,29.96,NW,315,6.3,-999.0,58,-99.99,,,0.00,Acu-Link.com,2013-06-13 15:42:00,
2013-06-13 10:57:00,76.8,61.8,29.96,NNE,22,1.1,-999.0,60,-99.99,,,0.00,Acu-Link.com,2013-06-13 15:57:00,
2013-06-13 11:13:00,77.7,61.7,29.95,North,0,0.0,-999.0,58,-99.99,,,0.00,Acu-Link.com,2013-06-13 16:13:00,
2013-06-13 11:28:00,77.5,62.0,29.96,ENE,67,1.1,-999.0,59,-99.99,,,0.00,Acu-Link.com,2013-06-13 16:28:00,
2013-06-13 11:43:00,77.9,61.9,29.96,NW,315,1.7,-999.0,58,-99.99,,,0.00,Acu-Link.com,2013-06-13 16:43:00,
2013-06-13 11:59:00,79.3,62.2,29.96,NW,315,4.2,-999.0,56,-99.99,,,0.00,Acu-Link.com,2013-06-13 16:59:00,
2013-06-13 12:14:00,78.8,61.8,29.96,NNW,337,3.2,-999.0,56,-99.99,,,0.00,Acu-Link.com,2013-06-13 17:14:00,
2013-06-13 12:29:00,79.7,62.6,29.95,NNW,337,1.7,-999.0,56,-99.99,,,0.00,Acu-Link.com,2013-06-13 17:29:00,
2013-06-13 12:45:00,81.1,62.9,29.95,NW,315,6.3,-999.0,54,-99.99,,,0.00,Acu-Link.com,2013-06-13 17:45:00,
2013-06-13 13:00:00,80.6,64.4,29.96,West,270,1.7,-999.0,58,-99.99,,,0.00,Acu-Link.com,2013-06-13 18:00:00,
2013-06-13 13:15:00,81.1,63.4,29.95,WNW,292,4.7,-999.0,55,-99.99,,,0.00,Acu-Link.com,2013-06-13 18:15:00,
2013-06-13 13:30:00,80.2,63.6,29.95,SW,225,2.2,-999.0,57,-99.99,,,0.00,Acu-Link.com,2013-06-13 18:30:00,
2013-06-13 13:46:00,81.1,63.4,29.95,ENE,67,1.7,-999.0,55,-99.99,,,0.00,Acu-Link.com,2013-06-13 18:46:00,
2013-06-13 14:01:00,82.8,62.8,29.95,NNW,337,7.8,-999.0,51,-99.99,,,0.00,Acu-Link.com,2013-06-13 19:01:00,
2013-06-13 14:16:00,81.9,63.6,29.94,WNW,292,6.8,-999.0,54,-99.99,,,0.00,Acu-Link.com,2013-06-13 19:16:00,
2013-06-13 14:32:00,82.0,62.6,29.93,NW,315,2.7,-999.0,52,-99.99,,,0.00,Acu-Link.com,2013-06-13 19:32:00,
2013-06-13 14:47:00,81.9,61.4,29.93,ENE,67,0.0,-999.0,50,-99.99,,,0.00,Acu-Link.com,2013-06-13 19:47:00,
2013-06-13 15:02:00,83.3,63.3,29.92,NNW,337,4.7,-999.0,51,-99.99,,,0.00,Acu-Link.com,2013-06-13 20:02:00,
2013-06-13 15:18:00,83.7,63.1,29.92,WNW,292,6.8,-999.0,50,-99.99,,,0.00,Acu-Link.com,2013-06-13 20:18:00,
2013-06-13 15:33:00,82.9,62.9,29.91,NE,45,1.1,-999.0,51,-99.99,,,0.00,Acu-Link.com,2013-06-13 20:33:00,
2013-06-13 15:48:00,83.5,64.5,29.91,WSW,247,1.7,-999.0,53,-99.99,,,0.00,Acu-Link.com,2013-06-13 20:48:00,
2013-06-13 16:03:00,83.1,63.6,29.90,NE,45,0.0,-999.0,52,-99.99,,,0.00,Acu-Link.com,2013-06-13 21:03:00,
2013-06-13 16:18:00,83.7,64.7,29.90,ENE,67,0.0,-999.0,53,-99.99,,,0.00,Acu-Link.com,2013-06-13 21:18:00,
2013-06-13 16:33:00,83.5,63.4,29.90,NE,45,0.0,-999.0,51,-99.99,,,0.00,Acu-Link.com,2013-06-13 21:33:00,
2013-06-13 16:49:00,83.7,63.6,29.91,NNW,337,1.1,-999.0,51,-99.99,,,0.00,Acu-Link.com,2013-06-13 21:49:00,
2013-06-13 17:04:00,84.2,62.9,29.91,NNW,337,1.7,-999.0,49,-99.99,,,0.00,Acu-Link.com,2013-06-13 22:04:00,
2013-06-13 17:19:00,83.8,63.1,29.91,NW,315,0.0,-999.0,50,-99.99,,,0.00,Acu-Link.com,2013-06-13 22:19:00,
2013-06-13 17:35:00,84.9,63.6,29.91,NW,315,1.1,-999.0,49,-99.99,,,0.00,Acu-Link.com,2013-06-13 22:35:00,
2013-06-13 17:50:00,88.9,63.5,29.92,East,90,2.7,-999.0,43,-99.99,,,0.00,Acu-Link.com,2013-06-13 22:50:00,
2013-06-13 18:05:00,89.1,64.3,29.92,NNW,337,3.7,-999.0,44,-99.99,,,0.00,Acu-Link.com,2013-06-13 23:05:00,
2013-06-13 18:21:00,89.8,64.3,29.91,NW,315,1.1,-999.0,43,-99.99,,,0.00,Acu-Link.com,2013-06-13 23:21:00,
2013-06-13 18:36:00,87.8,63.8,29.90,West,270,3.7,-999.0,45,-99.99,,,0.00,Acu-Link.com,2013-06-13 23:36:00,
2013-06-13 18:51:00,87.1,64.4,29.90,NNW,337,0.0,-999.0,47,-99.99,,,0.00,Acu-Link.com,2013-06-13 23:51:00,
2013-06-13 19:06:00,86.2,64.8,29.91,South,180,0.0,-999.0,49,-99.99,,,0.00,Acu-Link.com,2013-06-14 00:06:00,
2013-06-13 19:21:00,85.3,64.5,29.90,ENE,67,0.0,-999.0,50,-99.99,,,0.00,Acu-Link.com,2013-06-14 00:21:00,
2013-06-13 19:37:00,82.2,64.4,29.92,NE,45,0.0,-999.0,55,-99.99,,,0.00,Acu-Link.com,2013-06-14 00:37:00,
2013-06-13 19:52:00,81.0,63.8,29.93,NE,45,0.0,-999.0,56,-99.99,,,0.00,Acu-Link.com,2013-06-14 00:52:00,
2013-06-13 20:07:00,78.6,63.1,29.93,ENE,67,2.7,-999.0,59,-99.99,,,0.00,Acu-Link.com,2013-06-14 01:07:00,
2013-06-13 20:23:00,76.3,62.8,29.92,NE,45,1.7,-999.0,63,-99.99,,,0.00,Acu-Link.com,2013-06-14 01:23:00,
2013-06-13 20:53:00,73.9,62.2,29.91,ENE,67,3.7,-999.0,67,-99.99,,,0.00,Acu-Link.com,2013-06-14 01:53:00,
2013-06-13 21:08:00,73.6,62.0,29.91,East,90,2.7,-999.0,67,-99.99,,,0.00,Acu-Link.com,2013-06-14 02:08:00,
2013-06-13 21:23:00,72.9,61.3,29.91,ESE,112,3.2,-999.0,67,-99.99,,,0.00,Acu-Link.com,2013-06-14 02:23:00,
2013-06-13 21:39:00,72.1,61.8,29.92,ESE,112,1.1,-999.0,70,-99.99,,,0.00,Acu-Link.com,2013-06-14 02:39:00,
2013-06-13 21:54:00,71.1,61.6,29.90,SE,135,2.2,-999.0,72,-99.99,,,0.00,Acu-Link.com,2013-06-14 02:54:00,
2013-06-13 22:09:00,70.5,61.4,29.92,ESE,112,0.0,-999.0,73,-99.99,,,0.00,Acu-Link.com,2013-06-14 03:09:00,
2013-06-13 22:24:00,69.6,62.1,29.91,East,90,0.0,-999.0,77,-99.99,,,0.00,Acu-Link.com,2013-06-14 03:24:00,
2013-06-13 22:40:00,69.1,61.9,29.90,ESE,112,0.0,-999.0,78,-99.99,,,0.00,Acu-Link.com,2013-06-14 03:40:00,
2013-06-13 22:55:00,68.5,62.1,29.90,SE,135,3.2,-999.0,80,-99.99,,,0.00,Acu-Link.com,2013-06-14 03:55:00,
2013-06-13 23:10:00,68.4,62.0,29.90,SSE,157,2.2,-999.0,80,-99.99,,,0.00,Acu-Link.com,2013-06-14 04:10:00,
2013-06-13 23:25:00,67.8,61.4,29.89,ESE,112,1.7,-999.0,80,-99.99,,,0.00,Acu-Link.com,2013-06-14 04:25:00,
2013-06-13 23:41:00,67.3,61.6,29.90,West,270,0.0,-999.0,82,-99.99,,,0.00,Acu-Link.com,2013-06-14 04:41:00,
2013-06-13 23:56:00,67.5,62.1,29.90,SSE,157,2.7,-999.0,83,-99.99,,,0.00,Acu-Link.com,2013-06-14 04:56:00,